Terminal Aerodrome Forecast
Issued by NWS

Current Version | Previous Version | Text Only | Print | Product List | Glossary Off
Versions: 1 2 3 4 5 6 7 8 9 10 11 12 13 14 15 16 17 18 19 20 21 22 23 24 25 26 27 28 29

000
FTUS41 KRLX 190300 AAB
TAFCKB
TAF AMD
KCKB 190358Z 1904/1924 32007KT P6SM BKN025 BKN035 OVC050
     FM190500 30006KT 4SM BR OVC010
     FM190600 30006KT 4SM BR OVC008
     FM190900 30007KT 4SM BR BKN010
     FM191200 29006KT 5SM BR SCT015
     FM192200 25005KT P6SM SCT200=

USA.gov is the U.S. government's official web portal to all federal, state and local government web resources and services.